AirNav   Everest Fuels
 
 1086 users online  

MI81 Express Heliport
Farmington Hills, Michigan, USA

GOING TO FARMINGTON HILLS?


FAA INFORMATION EFFECTIVE 21 MAY 2020

Location

FAA Identifier: MI81
Lat/Long: 42-30-50.0000N 083-21-28.0000W
42-30.833333N 083-21.466667W
42.5138889,-83.3577778
(estimated)
Elevation: 895 ft. / 273 m (estimated)
From city: 2 miles N of FARMINGTON HILLS, MI
Time zone: UTC -4 (UTC -5 during Standard Time)
Zip code: 48334

Heliport Operations

Heliport use: Private use. Permission required prior to landing
Activation date: 05/2006
Control tower: no
ARTCC: CLEVELAND CENTER
FSS: LANSING FLIGHT SERVICE STATION
Attendance: UNATNDD
Wind indicator: yes
Segmented circle: no

Heliport Communications

WX AWOS-3 at VLL (8 nm E): 119.475 (248-288-4649)
WX ASOS at PTK (10 nm N): 125.025 (248-886-8551)
WX ASOS at DET (17 nm E): PHONE 313-371-9696
WX ASOS at DTW (18 nm S): 133.675 (734-955-5015)
WX ASOS at YIP (18 nm SW): PHONE 734-961-6843

Nearby radio navigation aids

VOR radial/distance  VOR name  Freq  Var
SVMr062/12.2SALEM VORTAC114.3003W
DXOr007/18.0DETROIT VOR/DME113.4006W
CRLr012/28.3CARLETON VOR/DME115.7003W
FNTr154/32.1FLINT VORTAC116.9006W

 
NDB name  Hdg/Dist  Freq  Var  ID
GROSSE ILE347/26.441907WRYS .-. -.-- ...
TECUMSEH045/37.123906WTCU - -.-. ..-

Heliport Services

Runway Information

Helipad H1

Dimensions: 20 x 20 ft. / 6 x 6 m
Surface: aluminumINUM
Operational restrictions: ROOFTOP HELIPAD.
Traffic pattern: leftleft

Heliport Ownership and Management from official FAA records

Ownership: Privately-owned
Owner: MAURICE JANOWITZ
31333 WEST 13 MILE RD
FARMINGTON HILLS, MI 48334
Phone 248-737-4980
Manager: MAURICE JANOWITZ
31333 WEST 13 MILE RD
FARMINGTON HILLS, MI 48334
Phone 248-737-4980

Additional Remarks

10 FT PLINE 70 FT N OF PAD.
OWNER DESIRES HELIPORT NOT BE CHARTED.
FOR CD CTC DETROIT APCH AT 800-499-8181.

Instrument Procedures

There are no published instrument procedures at MI81.

Some nearby airports with instrument procedures:

KVLL - Oakland/Troy Airport (8 nm E)
KPTK - Oakland County International Airport (10 nm N)
1D2 - Canton-Plymouth-Mettetal Airport (11 nm SW)
Y47 - Oakland Southwest Airport (12 nm W)
KDET - Coleman A Young Municipal Airport (17 nm E)
KDTW - Detroit Metropolitan Wayne County Airport (18 nm S)
KYIP - Willow Run Airport (18 nm SW)
 
Loc | Ops | Rwys | IFR | FBO | Links
Com | Nav | Svcs | Stats | Notes
Area around MI81 (Express Heliport)
 
Road maps at: MapQuest Bing Google
 
Aerial photo
No photo
 
Sectional chart

 
Airport distance calculator
Flying to Express Heliport? Find the distance to fly.

From to MI81

Sunrise and sunset
Times for 06-Jun-2020
 Local
(UTC-4)
 Zulu
(UTC)
Morning civil twilight05:2309:23
Sunrise05:5709:57
Sunset21:0701:07
Evening civil twilight21:4201:42

Current date and time
Zulu (UTC)  06-Jun-2020 15:23:46
Local (UTC-4)  06-Jun-2020 11:23:46
 
METAR
KVLL 
8nm E 
061456Z AUTO 00000KT 10SM CLR 24/13 A3000 RMK AO2 T02440125
KPTK 
10nm N 
061453Z VRB03KT 10SM FEW046 FEW085 SCT250 23/12 A2997 RMK AO2 SLP143 T02330122 50004
KDET 
17nm SE 
061453Z 20003KT 10SM CLR 24/13 A2998 RMK AO2 SLP149 T02390128 50007
KDTW 
17nm S 
061453Z VRB03KT 10SM FEW045 24/16 A2999 RMK AO2 SLP150 T02440156 50004
KYIP 
19nm SW 
061453Z 10SM CLR 26/15 A2999 RMK AO2 SLP148 T02610150 50004 $
TAF
KPTK 
10nm N 
061120Z 0612/0712 32006KT P6SM SKC FM061800 33012G20KT P6SM SCT060 FM070100 02008KT P6SM SCT050 FM070800 02004KT P6SM SKC
KDET 
17nm SE 
061120Z 0612/0712 32006KT P6SM SKC FM061800 32012G20KT P6SM SCT060 FM070100 03008KT P6SM SCT050 FM070700 01004KT P6SM SKC
KDTW 
17nm S 
061120Z 0612/0718 32006KT P6SM SKC FM061800 32012G20KT P6SM SCT060 FM070100 03008KT P6SM SCT050 FM070700 01004KT P6SM SKC
KYIP 
19nm SW 
061120Z 0612/0712 32006KT P6SM SKC FM061800 32012G20KT P6SM SCT060 FM070100 03005KT P6SM SCT050 FM070700 01004KT P6SM SKC
NOTAMs
Click for the latest NOTAMs
NOTAMs are issued by the DoD/FAA and will open in a separate window not controlled by AirNav.

 

 
 

Would you like to see your business listed on this page?

 If your business provides an interesting product or service to pilots, flight crews, aircraft, or users of the Express Heliport, you should consider listing it here.  To start the listing process, click on the button below
 
Add a business
 

Other Pages about Express Heliport

Update a link
 
Copyright © AirNav, LLC. All rights reserved. Privacy Policy  Contact